Location: Belvedere Heights
(33.9836°N, 117.3109°W)
Time: 07:10:42
(UTC+00:00)

BUGSAT 1 - Visible Passes

Search period start: 21 May 2024 00:00
Search period end: 31 May 2024 00:00
Orbit: 531 x 580 km, 98.1° (Epoch: 20 May)

Date Brightness Start Highest point End Pass type
(mag) Time Alt. Az. Time Alt. Az. Time Alt. Az.
21 May ? 04:41:15 10° SW 04:43:28 14° W 04:45:42 10° WNW visible
22 May ? 04:38:25 10° SW 04:40:53 15° W 04:43:20 10° WNW visible
23 May ? 04:35:36 10° SW 04:38:15 17° W 04:40:55 10° NW visible
24 May ? 04:32:47 10° SW 04:35:37 18° W 04:38:28 10° NW visible
25 May ? 04:29:58 10° SW 04:32:58 19° W 04:35:59 10° NW visible
26 May ? 04:27:09 10° SSW 04:30:18 21° W 04:33:27 10° NW visible
27 May ? 04:24:20 10° SSW 04:27:36 23° W 04:30:53 10° NW visible
28 May ? 04:21:31 10° SSW 04:24:54 25° W 04:28:18 10° NW visible
29 May ? 04:18:41 10° SSW 04:22:10 27° W 04:25:41 10° NW visible
30 May ? 04:15:51 10° SSW 04:19:26 29° W 04:23:01 10° NW visible
